Futenma MCAF, Japan

8:58 AM JST on April 25, 2018 (GMT +0900)
Futenma Marine Corps Air Station

Weather History for ROTM - June, 2013

Change the Weather History Date:

Sunday, June 30, 2013

  Actual Average Record
Temperature  
Mean Temperature 86 °F -  
Max Temperature 91 °F 87 °F - ()
Min Temperature 82 °F 77 °F - ()
Cooling Degree Days 22    
Growing Degree Days 36 (Base 50)    
Moisture  
Dew Point 76 °F    
Average Humidity 71    
Maximum Humidity 85    
Minimum Humidity 55    
Precipitation  
Precipitation 0.00 in - - ()
Sea Level Pressure  
Sea Level Pressure 29.86 in    
Wind  
Wind Speed 6 mph ()    
Max Wind Speed 15 mph    
Max Gust Speed -    
Visibility 6.2 miles    
Events      
T = Trace of Precipitation, MM = Missing Value Source: Averaged Metar Reports

Daily Weather History Graph

Daily Weather History Graph

Search for Another Location

Airport or City:

Astronomy

Jun. 30, 2013 Rise Set
Actual Time 5:39 AM JST 7:25 PM JST
Civil Twilight 5:13 AM JST 7:51 PM JST
Nautical Twilight 4:42 AM JST 8:23 PM JST
Astronomical Twilight 4:09 AM JST 8:56 PM JST
Moon No Moon Rise 12:30 PM JST (6/30)
Length of Visible Light 14h 38m
Length of Day
13h 45m
Waning Gibbous, 51% of the Moon is Illuminated
Jun 30
Waning Gibbous
Jun 30
Last Quarter
Jul 8
New
Jul 16
First Quarter
Jul 23
Full

Hourly Weather History & Observations

Time (JST) Temp. Heat Index Dew Point Humidity Pressure Visibility Wind Dir Wind Speed Gust Speed Precip Events Conditions
12:58 AM 84.0 °F 96.0 °F 79.0 °F 85% 29.84 in 6.2 mi SSW 5.8 mph - N/A   Scattered Clouds
1:58 AM 82.9 °F 91.8 °F 77.0 °F 82% 29.83 in 6.2 mi SW 6.9 mph - N/A   Scattered Clouds
2:58 AM 84.0 °F 93.7 °F 77.0 °F 79% 29.84 in 6.2 mi SW 5.8 mph - N/A   Mostly Cloudy
3:58 AM 82.9 °F 91.8 °F 77.0 °F 82% 29.83 in 6.2 mi SW 4.6 mph - N/A   Scattered Clouds
4:58 AM 84.0 °F 93.7 °F 77.0 °F 79% 29.83 in 6.2 mi SW 4.6 mph - N/A   Mostly Cloudy
5:58 AM 82.9 °F 91.8 °F 77.0 °F 82% 29.85 in 6.2 mi SW 5.8 mph - N/A   Mostly Cloudy
6:58 AM 84.0 °F 93.7 °F 77.0 °F 79% 29.85 in 6.2 mi SW 8.1 mph - N/A   Mostly Cloudy
7:58 AM 86.0 °F 96.9 °F 77.0 °F 74% 29.88 in 6.2 mi SW 8.1 mph - N/A   Mostly Cloudy
8:58 AM 88.0 °F 100.2 °F 77.0 °F 70% 29.88 in 6.2 mi Variable 5.8 mph - N/A   Mostly Cloudy
9:58 AM 88.0 °F 100.2 °F 77.0 °F 70% 29.89 in 6.2 mi WSW 9.2 mph - N/A   Mostly Cloudy
10:58 AM 89.1 °F 99.1 °F 75.0 °F 63% 29.89 in 6.2 mi WSW 9.2 mph - N/A   Mostly Cloudy
11:58 AM 90.0 °F 100.2 °F 75.0 °F 61% 29.88 in 6.2 mi West 13.8 mph - N/A   Mostly Cloudy
12:58 PM 91.9 °F 101.3 °F 73.9 °F 55% 29.87 in 6.2 mi WSW 15.0 mph - N/A   Mostly Cloudy
1:58 PM 91.9 °F 103.2 °F 75.0 °F 58% 29.86 in 6.2 mi WSW 10.4 mph - N/A   Mostly Cloudy
2:58 PM 91.0 °F 100.4 °F 73.9 °F 57% 29.85 in 6.2 mi WSW 10.4 mph - N/A   Mostly Cloudy
3:58 PM 90.0 °F 100.2 °F 75.0 °F 61% 29.84 in 6.2 mi WSW 5.8 mph - N/A   Mostly Cloudy
4:58 PM 90.0 °F 101.3 °F 75.9 °F 63% 29.83 in 6.2 mi WSW 5.8 mph - N/A   Mostly Cloudy
5:58 PM 88.0 °F 97.5 °F 75.0 °F 65% 29.84 in 6.2 mi WSW 10.4 mph - N/A   Mostly Cloudy
6:58 PM 88.0 °F 98.5 °F 75.9 °F 67% 29.85 in 6.2 mi SW 9.2 mph - N/A   Mostly Cloudy
7:58 PM 84.9 °F 91.4 °F 73.0 °F 67% 29.87 in 6.2 mi West 8.1 mph - N/A   Mostly Cloudy
8:58 PM 86.0 °F 96.0 °F 75.9 °F 72% 29.87 in 6.2 mi Variable 4.6 mph - N/A   Scattered Clouds
9:58 PM 84.9 °F 95.3 °F 77.0 °F 77% 29.87 in 6.2 mi Variable 5.8 mph - N/A   Scattered Clouds
10:58 PM 84.9 °F 96.6 °F 78.1 °F 80% 29.88 in 6.2 mi Variable 3.5 mph - N/A   Mostly Cloudy
11:58 PM 84.9 °F 96.6 °F 78.1 °F 80% 29.86 in 6.2 mi Variable 4.6 mph - N/A   Scattered Clouds